This is the latest recevied weather packets stored in our database for station/object K5OLV. If no packets are shown the sender has not sent any weather packets the latest 10 day(s).
| Time | Temp. | Humidity | Pressure | Rain* | Wind** | Luminosity | Snow |
|---|---|---|---|---|---|---|---|
| 1777423338 | 16.67° C | 93% | 1016.6 hPa | 0 mm | - | 0 W/m² | - |
| 1777423034 | 16.67° C | 93% | 1016.3 hPa | 0 mm | - | 0 W/m² | - |
| 1777422730 | 17.22° C | 93% | 1016.5 hPa | 0 mm | - | 0 W/m² | - |
| 1777422424 | 17.22° C | 93% | 1016.5 hPa | 0 mm | - | 0 W/m² | - |
| 1777422120 | 17.22° C | 93% | 1016.1 hPa | 0 mm | - | 0 W/m² | - |
| 1777421819 | 17.22° C | 93% | 1016.2 hPa | 0 mm | - | 0 W/m² | - |
| 1777421514 | 17.22° C | 92% | 1015.9 hPa | 0 mm | - | 0 W/m² | - |
| 1777421211 | 17.22° C | 92% | 1015.9 hPa | 0 mm | - | 0 W/m² | - |
| 1777420907 | 17.22° C | 92% | 1015.8 hPa | 0 mm | - | 1 W/m² | - |
| 1777420604 | 17.22° C | 92% | 1015.5 hPa | 0 mm | - | 0 W/m² | - |
| 1777420300 | 17.22° C | 92% | 1015 hPa | 0 mm | - | 2 W/m² | - |
| 1777419995 | 17.78° C | 92% | 1015 hPa | 0 mm | - | 4 W/m² | - |
| 1777419692 | 17.78° C | 92% | 1014.7 hPa | 0 mm | - | 7 W/m² | - |
| 1777419390 | 17.78° C | 91% | 1014.7 hPa | 0 mm | - | 9 W/m² | - |
| 1777419090 | 17.78° C | 91% | 1014.6 hPa | 0 mm | - | 11 W/m² | - |
| 1777418789 | 17.78° C | 91% | 1014.8 hPa | 0 mm | - | 16 W/m² | - |
| 1777418486 | 17.78° C | 91% | 1014.8 hPa | 0 mm | - | 22 W/m² | - |
| 1777418182 | 17.78° C | 91% | 1014.6 hPa | 0 mm | - | 19 W/m² | - |
| 1777417878 | 17.78° C | 91% | 1014.7 hPa | 0 mm | - | 43 W/m² | - |
| 1777417575 | 17.78° C | 91% | 1014.5 hPa | 0 mm | - | 29 W/m² | - |
| 1777417270 | 17.78° C | 90% | 1014.6 hPa | 0 mm | - | 14 W/m² | - |
| 1777416967 | 17.78° C | 90% | 1014.5 hPa | 0 mm | - | 27 W/m² | - |
| 1777416667 | 17.78° C | 90% | 1014.5 hPa | 0 mm | - | 29 W/m² | - |
| 1777416364 | 17.78° C | 90% | 1014.5 hPa | 0 mm | - | 23 W/m² | - |
| 1777416063 | 18.33° C | 90% | 1014.4 hPa | 0 mm | - | 40 W/m² | - |
* Rain latest hour (hover to see other rain measurements)
** Current wind speed in m/s (hover to see current wind gust speed)